Погода в Сары

Украина / Полтавская область     50°18′26″N   33°55′52″E
темп.,
°C
ветер,
м/с
пор.,
м/с
влажн.,
%
обл.,
%
осадки,
мм/ч
давл.,
гПа
погр.,
м
9 марта, вт
вт923:00−2сз588189 0.1 1012573
02:00−4сз588665 0.1 1014423
05:00−6ссз697262 0.0 1015597
08:00−6сз587231 0.0 1018606
11:00−4сз576035 0.0 1019975
14:00−4сз566160 0.0 10201037
17:00−5ссз576897 0.0 1021900
20:00−6ссз476777 0.0 1024844
10 марта, ср
ср1023:00−6ссз466922 0.0 1025606
02:00−7ссз347311 0.0 1026315
05:00−8с237722 0.0 1027232
08:00−8ссв227051 0.0 1028277
11:00−5ссв2151100 0.0 1027590
14:00−3ссв104198 0.0 1027774
17:00−3св214350 0.0 1026712
20:00−4св235825 0.0 1027237
11 марта, чт
чт1123:00−5св23640 0.0 1027188
02:00−6св24680 0.0 1028166
05:00−6св247415 0.0 1028190
08:00−5в346137 0.0 1029352
11:00−3вюв334625 0.0 1029914
14:00−1в224314 0.0 10291329
17:00−2в3351100 0.0 10291052
20:00−4вюв575870 0.0 1030600
12 марта, пт
пт1223:00−5юв57560 0.0 1030569
02:00−6юв57490 0.0 1031485
05:00−7юв57450 0.0 1031434
08:00−7юв68399 0.0 1031512
11:00−4ююв683130 0.0 1030796
14:00−2ююв792865 0.0 1028930
17:00−2ююв71029100 0.0 1027952
20:00−3ю71232100 0.0 1027914
13 марта, сб
сб1323:00−3ю81333100 0.0 1027964
02:00−4ю91476100 0.1 1026846
05:00−4ю81358100 0.0 1025743
08:00−4ю81277100 0.2 1026688
11:000ю81269100 0.0 1025777
14:00+1ююз71178100 0.0 1024849
17:000ююз61196100 0.1 1023722
20:000ю71396100 0.8 1023749